Weather History for KNCA - March, 2013

Change the Weather History Date:

Thursday, March 14, 2013

  Actual Average Record
Temperature  
Mean Temperature 42 °F -  
Max Temperature 53 °F 62 °F 82 °F (2007)
Min Temperature 34 °F 41 °F 26 °F (2014)
Degree Days  
Heating Degree Days 22    
Moisture  
Dew Point 19 °F    
Average Humidity 40    
Maximum Humidity 62    
Minimum Humidity 26    
Precipitation  
Precipitation 0.00 in - - ()
Sea Level Pressure  
Sea Level Pressure 30.17 in    
Wind  
Wind Speed 13 mph (WNW)    
Max Wind Speed 17 mph    
Max Gust Speed 28 mph    
Visibility 10 miles    
Events      
Averages and records for this station are not official NWS values.
T = Trace of Precipitation, MM = Missing Value Source: NWS Daily Summary

Daily Weather History Graph

Daily Weather History Graph

Search for Another Location

Airport or City:

Trip Planner

Search our weather history database for the weather conditions in past years. The results will help you decide how hot, cold, wet, or windy it might be!

Date:

Astronomy

Mar. 14, 2013 Rise Set
Actual Time 7:21 AM EDT 7:16 PM EDT
Civil Twilight 6:56 AM EDT 7:41 PM EDT
Nautical Twilight 6:27 AM EDT 8:11 PM EDT
Astronomical Twilight 5:57 AM EDT 8:40 PM EDT
Moon 8:42 AM EDT (3/14) 10:21 PM EDT (3/14)
Length of Visible Light 12h 45m
Length of Day
11h 55m
Waxing Crescent, 9% of the Moon is Illuminated
Mar 14
Waxing Crescent
Mar 19
First Quarter
Mar 27
Full
Apr 3
Last Quarter
Apr 10
New

Hourly Weather History & Observations

Time (EDT) Temp. Windchill Dew Point Humidity Pressure Visibility Wind Dir Wind Speed Gust Speed Precip Events Conditions
12:56 AM 45.0 °F 38.5 °F 21.0 °F 39% 30.11 in 10.0 mi NNW 13.8 mph - N/A   Partly Cloudy
1:56 AM 44.1 °F 36.8 °F 18.0 °F 35% 30.12 in 10.0 mi NNW 16.1 mph 24.2 mph N/A   Overcast
2:56 AM 42.1 °F 34.2 °F 19.0 °F 40% 30.13 in 10.0 mi NNW 16.1 mph 24.2 mph N/A   Overcast
3:56 AM 39.0 °F 29.9 °F 17.1 °F 41% 30.15 in 10.0 mi NNW 17.3 mph 25.3 mph N/A   Clear
4:56 AM 37.0 °F 28.1 °F 16.0 °F 42% 30.16 in 10.0 mi NW 15.0 mph 20.7 mph N/A   Clear
5:56 AM 35.1 °F 26.9 °F 16.0 °F 46% 30.17 in 10.0 mi NW 11.5 mph - N/A   Clear
6:56 AM 34.0 °F 25.0 °F 16.0 °F 48% 30.19 in 10.0 mi NW 12.7 mph - N/A   Clear
7:56 AM 34.0 °F 27.2 °F 17.1 °F 50% 30.22 in 10.0 mi NW 8.1 mph - N/A   Clear
8:56 AM 37.0 °F 28.1 °F 17.1 °F 44% 30.24 in 10.0 mi NW 15.0 mph - N/A   Clear
9:56 AM 39.9 °F 31.1 °F 16.0 °F 38% 30.24 in 10.0 mi NW 17.3 mph 27.6 mph N/A   Clear
10:56 AM 42.1 °F 34.9 °F 16.0 °F 35% 30.23 in 10.0 mi NW 13.8 mph 21.9 mph N/A   Clear
11:56 AM 45.0 °F 38.2 °F 17.1 °F 33% 30.23 in 10.0 mi NW 15.0 mph 23.0 mph N/A   Clear
12:56 PM 46.9 °F - 18.0 °F 32% 30.22 in 10.0 mi NW 13.8 mph 20.7 mph N/A   Clear
1:56 PM 46.0 °F 41.9 °F 18.0 °F 33% 30.19 in 10.0 mi WSW 8.1 mph 21.9 mph N/A   Clear
2:56 PM 50.0 °F - 17.1 °F 27% 30.17 in 10.0 mi NW 12.7 mph 19.6 mph N/A   Clear
3:56 PM 51.1 °F - 18.0 °F 27% 30.15 in 10.0 mi Variable 6.9 mph 23.0 mph N/A   Clear
4:56 PM 51.1 °F - 17.1 °F 26% 30.14 in 10.0 mi WNW 11.5 mph 20.7 mph N/A   Clear
5:56 PM 51.1 °F - 18.0 °F 27% 30.14 in 9.0 mi WNW 11.5 mph - N/A   Clear
6:56 PM 48.9 °F - 19.0 °F 31% 30.14 in 10.0 mi WNW 9.2 mph - N/A   Clear
7:56 PM 46.0 °F 43.9 °F 23.0 °F 40% 30.15 in 10.0 mi West 4.6 mph - N/A   Clear
8:56 PM 41.0 °F 38.0 °F 28.0 °F 60% 30.17 in 9.0 mi WSW 4.6 mph - N/A   Clear
9:56 PM 41.0 °F 39.0 °F 26.1 °F 55% 30.17 in 10.0 mi SW 3.5 mph - N/A   Clear
10:56 PM 39.9 °F 36.7 °F 25.0 °F 55% 30.17 in 10.0 mi WSW 4.6 mph - N/A   Clear
11:15 PM - - - N/A% - - North - - N/A   Unknown
11:56 PM 37.9 °F 32.1 °F 26.1 °F 62% 30.17 in 10.0 mi West 8.1 mph - N/A   Clear